This is the latest recevied weather packets stored in our database for station/object EA7RX-4. If no packets are shown the sender has not sent any weather packets the latest 10 day(s).
| Time | Temp. | Humidity | Pressure | Rain* | Wind** | Luminosity | Snow |
|---|---|---|---|---|---|---|---|
| 1788102003 | 30° C | 24% | 1017 hPa | 0 mm | - | 606 W/m² | - |
| 1788101403 | 29.44° C | 24% | 1017.3 hPa | 0 mm | - | 631 W/m² | - |
| 1788100803 | 29.44° C | 25% | 1017.1 hPa | 0 mm | - | 658 W/m² | - |
| 1788100203 | 29.44° C | 25% | 1017.5 hPa | 0 mm | - | 683 W/m² | - |
| 1788099603 | 29.44° C | 25% | 1017.4 hPa | 0 mm | - | 714 W/m² | - |
| 1788099003 | 28.89° C | 25% | 1017.5 hPa | 0 mm | - | 739 W/m² | - |
| 1788098403 | 28.89° C | 26% | 1017.7 hPa | 0 mm | - | 763 W/m² | - |
| 1788097803 | 28.33° C | 26% | 1017.5 hPa | 0 mm | - | 783 W/m² | - |
| 1788097203 | 28.33° C | 26% | 1017.9 hPa | 0 mm | - | 797 W/m² | - |
| 1788096603 | 28.33° C | 26% | 1017.9 hPa | 0 mm | - | 815 W/m² | - |
| 1788096003 | 28.33° C | 26% | 1017.9 hPa | 0 mm | - | 828 W/m² | - |
| 1788095403 | 27.78° C | 28% | 1017.9 hPa | 0 mm | - | 845 W/m² | - |
| 1788094803 | 28.33° C | 26% | 1018.2 hPa | 0 mm | - | 857 W/m² | - |
| 1788094203 | 27.78° C | 26% | 1018.2 hPa | 0 mm | - | 863 W/m² | - |
| 1788093603 | 27.78° C | 27% | 1018.2 hPa | 0 mm | - | 871 W/m² | - |
| 1788093003 | 27.22° C | 27% | 1018.7 hPa | 0 mm | - | 878 W/m² | - |
| 1788092403 | 27.22° C | 27% | 1018.3 hPa | 0 mm | - | 879 W/m² | - |
| 1788091803 | 27.22° C | 26% | 1018.6 hPa | 0 mm | - | 880 W/m² | - |
| 1788091203 | 27.22° C | 27% | 1018.3 hPa | 0 mm | - | 878 W/m² | - |
| 1788090603 | 26.67° C | 28% | 1018.6 hPa | 0 mm | - | 873 W/m² | - |
| 1788090003 | 26.11° C | 28% | 1018.7 hPa | 0 mm | - | 868 W/m² | - |
| 1788089403 | 26.11° C | 29% | 1018.7 hPa | 0 mm | - | 863 W/m² | - |
| 1788088803 | 26.11° C | 30% | 1018.9 hPa | 0 mm | - | 852 W/m² | - |
| 1788088203 | 26.11° C | 30% | 1018.7 hPa | 0 mm | - | 842 W/m² | - |
| 1788087603 | 26.11° C | 29% | 1018.9 hPa | 0 mm | - | 827 W/m² | - |
* Rain latest hour (hover to see other rain measurements)
** Current wind speed in m/s (hover to see current wind gust speed)